Terminal Aerodrome Forecast
Issued by NWS Los Angeles, CA

Home | Current Version | Previous Version | Text Only | Print | Product List | Glossary On
Versions: 1 2 3 4 5 6 7 8 9 10 11 12 13 14 15 16 17 18 19 20 21 22 23 24 25 26 27 28 29 30 31 32 33 34 35
110
FTUS46 KLOX 231449 AAB
TAFSMX
TAF AMD
KSMX 231449Z 2315/2412 30003KT 4SM BR OVC004
     FM231600 VRB03KT 5SM BR BKN006
     FM231900 31006KT P6SM FEW010
     FM232100 31010KT P6SM SKC
     FM240300 30006KT P6SM OVC012
     FM240600 VRB03KT P6SM OVC009
     FM241100 VRB03KT 5SM BR OVC006=

USA.gov is the U.S. government's official web portal to all federal, state and local government web resources and services.